Location: Herm
(49.4830°N, 2.4500°W)
Time: 11:51:51
(UTC+01:00)

ISS - Visible Passes

Search period start: 03 October 2022 00:00
Search period end: 13 October 2022 00:00
Orbit: 415 x 420 km, 51.6° (Epoch: 03 October)

Date Brightness Start Highest point End Pass type
(mag) Time Alt. Az. Time Alt. Az. Time Alt. Az.
03 Oct -2.5 19:30:13 10° W 19:33:23 37° SSW 19:36:31 10° SE visible
04 Oct -0.9 20:20:10 10° WSW 20:21:32 12° SW 20:22:52 10° SSW visible
05 Oct -1.1 19:31:12 10° W 19:33:36 18° SW 19:35:59 10° S visible
